This demonstration page uses our WeatherBlox Daily Observations layout. Learn more.

Left ArrowRight Arrow

47.50024, -111.30081

Hourly Observations for May 23, 2021

Temp ( °F °C ) Dew Point ( °F °C ) Humidity (%) Winds ( mph kmh ) Pressure ( in mb ) Visibility ( mi km ) Precip ( " mm )
12:06 am 00:06 Cloudy 37 2.8 32 0 82 82 NNE 7 11 30.24 1024 10 16 0.00 0.00
12:48 am 00:48 Cloudy 37 3 32 0 81 81 N 5 7 30.23 1024 10 16 0.00 0.00
12:53 am 00:53 Cloudy 37 2.8 32 0 82 82 N 5 7 30.25 1024 10 16 0.00 0.00
1:42 am 01:42 Cloudy 36 2.2 33 0.6 89 89 NNW 6 9 30.21 1023 8 13 0.00 0.00
1:53 am 01:53 Cloudy with Mist and Fog 36 2.2 34 1.1 93 93 N 6 9 30.22 1023 6 10 0.00 0.00
2:53 am 02:53 Cloudy with Mist and Fog 36 2.2 35 1.7 97 97 NNW 5 7 30.21 1023 3 5 0.00 0.00
3:06 am 03:06 Cloudy with Mist and Fog 36 2.2 35 1.7 97 97 NW 6 9 30.19 1022 3 4 0.00 0.00
3:17 am 03:17 Cloudy with Mist and Fog 36 2.2 36 2.2 100 100 NW 5 7 30.19 1022 3 5 0.00 0.00
3:53 am 03:53 Cloudy with Light Rain 36 2.2 35 1.7 97 97 NW 6 9 30.16 1021 1 1 0.00 0.00
4:53 am 04:53 Cloudy with Rain 36 2.2 35 1.7 97 97 Calm 30.14 1021 1 2 0.03 0.76
5:27 am 05:27 Cloudy with Mist and Fog 36 2.2 35 1.7 97 97 Calm 30.12 1020 1 1 0.01 0.25
5:41 am 05:41 Cloudy with Light Rain 36 2.2 35 1.7 97 97 N 5 7 30.10 1019 0 0 0.01 0.25
5:53 am 05:53 Cloudy with Light Rain 36 2.2 35 1.7 97 97 N 3 6 30.11 1020 0 0 0.01 0.25
6:53 am 06:53 Cloudy with Light Rain 37 2.8 36 2.2 96 96 NE 6 9 30.07 1018 1 1 0.00 0.00
7:43 am 07:43 Cloudy 38 3.3 36 2.2 93 93 NE 3 6 30.02 1017 10 16 0.00 0.00
7:53 am 07:53 Cloudy 38 3.3 36 2.2 93 93 NNE 3 6 30.03 1017 8 13 0.00 0.00
8:53 am 08:53 Cloudy with Light Rain 38 3.3 36 2.2 93 93 NNW 5 7 30.02 1017 10 16 0.01 0.25
9:17 am 09:17 Cloudy 38 3.3 37 2.8 97 97 NNW 5 7 29.98 1015 10 16 0.00 0.00
9:41 am 09:41 Cloudy with Light Rain 38 3.3 37 2.8 97 97 N 5 7 29.97 1015 4 6 0.00 0.00
9:53 am 09:53 Cloudy with Light Rain 39 3.9 37 2.8 93 93 VRB 3 6 29.99 1016 4 6 0.00 0.00
10:22 am 10:22 Cloudy with Light Rain 39 3.9 38 3.3 96 96 WNW 7 11 29.93 1014 1 1 0.00 0.00
10:43 am 10:43 Cloudy with Mist and Fog 39 3.9 38 3.3 96 96 SW 7 11 29.96 1015 3 4 0.01 0.25
10:49 am 10:49 Cloudy with Mist and Fog 37 3 37 3 100 100 SSW 9 15 29.97 1015 0 0 0.01 0.25
10:53 am 10:53 Cloudy with Mist and Fog 38 3.3 37 2.8 97 97 SW 8 13 29.98 1015 1 2 0.01 0.25
11:00 am 11:00 Cloudy with Mist and Fog 39 3.9 38 3.3 96 96 SW 9 15 29.96 1015 0 0 0.00 0.00
11:53 am 11:53 Cloudy with Mist and Fog 37 2.8 36 2.2 96 96 SW 12 19 29.99 1016 1 2 0.00 0.00
12:53 pm 12:53 Cloudy 39 3.9 38 3.3 96 96 W 9 15 29.95 1014 2 3 0.01 0.25
1:04 pm 13:04 Cloudy 39 3.9 38 3.3 96 96 WNW 10 17 29.90 1013 3 5 0.00 0.00
1:53 pm 13:53 Cloudy 40 4.4 39 3.9 97 97 WNW 7 11 29.90 1012 3 5 0.00 0.00
2:26 pm 14:26 Cloudy 41 5 39 3.9 93 93 SW 6 9 29.88 1012 10 16 0.00 0.00
2:53 pm 14:53 Cloudy with Light Rain 40 4.4 38 3.3 93 93 SSW 9 15 29.91 1013 10 16 0.00 0.00
3:10 pm 15:10 Cloudy with Light Rain 40 4.4 38 3.3 93 93 SW 12 19 29.88 1012 2 3 0.00 0.00
3:28 pm 15:28 Cloudy with Light Rain 40 4.4 38 3.3 93 93 WSW 13 20 29.87 1011 3 4 0.01 0.25
3:38 pm 15:38 Cloudy with Light Rain 39 3.9 38 3.3 96 96 WSW 15 24 29.87 1012 3 4 0.01 0.25
3:53 pm 15:53 Cloudy with Rain 39 3.9 37 2.8 93 93 WSW 17 28 29.90 1013 3 5 0.03 0.76
4:30 pm 16:30 Cloudy 39 3.9 37 2.8 93 93 SW 16 26 29.87 1012 7 11 0.03 0.76
4:53 pm 16:53 Cloudy with Light Rain 40 4.4 38 3.3 93 93 WSW 14 22 29.91 1013 10 16 0.03 0.76
5:53 pm 17:53 Cloudy 41 5 38 3.3 89 89 SW 10 17 29.91 1013 10 16 0.00 0.00
6:28 pm 18:28 Mostly Cloudy 42 5.6 38 3.3 85 85 WSW 12 19 29.87 1011 10 16 0.00 0.00
6:53 pm 18:53 Mostly Cloudy 42 5.6 36 2.2 79 79 WSW 14 22 29.87 1012 10 16 0.00 0.00
7:53 pm 19:53 Sunny 42 5.6 37 2.8 82 82 WSW 9 15 29.86 1011 10 16 0.00 0.00
8:53 pm 20:53 Sunny 38 3.3 35 1.7 89 89 W 3 6 29.85 1011 10 16 0.00 0.00
9:53 pm 21:53 Partly Cloudy 36 2.2 34 1.1 93 93 Calm 29.85 1011 10 16 0.00 0.00
10:53 pm 22:53 Cloudy 41 5 36 2.2 82 82 SSW 7 11 29.84 1010 10 16 0.00 0.00
11:53 pm 23:53 Cloudy with Light Rain 43 6.1 37 2.8 80 80 SW 15 24 29.80 1009 10 16 0.00 0.00

Powered by AerisWeather